Weather History for HECA - November, 2012

Change the Weather History Date:

Sunday, November 18, 2012

  Actual Average Record
Temperature  
Mean Temperature 72 °F -  
Max Temperature 80 °F 69 °F 84 °F (1999)
Min Temperature 65 °F 53 °F 53 °F (2011)
Cooling Degree Days 8    
Growing Degree Days 22 (Base 50)    
Moisture  
Dew Point 43 °F    
Average Humidity 36    
Maximum Humidity 64    
Minimum Humidity 21    
Precipitation  
Precipitation 0.00 in 0.01 in - ()
Sea Level Pressure  
Sea Level Pressure 29.92 in    
Wind  
Wind Speed 6 mph ()    
Max Wind Speed 13 mph    
Max Gust Speed -    
Visibility 3.1 miles    
Events      
Averages and records for this station are not official NWS values.
T = Trace of Precipitation, MM = Missing Value Source: Averaged Metar Reports

Daily Weather History Graph

Daily Weather History Graph

Search for Another Location

Airport or City:

Trip Planner

Search our weather history database for the weather conditions in past years. The results will help you decide how hot, cold, wet, or windy it might be!

Date:

Astronomy

Nov. 18, 2012 Rise Set
Actual Time 6:22 AM EET 4:56 PM EET
Civil Twilight 5:56 AM EET 5:22 PM EET
Nautical Twilight 5:27 AM EET 5:51 PM EET
Astronomical Twilight 4:59 AM EET 6:19 PM EET
Moon 10:38 AM EET (11/18) 9:48 PM EET (11/18)
Length of Visible Light 11h 25m
Length of Day
10h 34m
Waxing Crescent, 27% of the Moon is Illuminated
Nov 18
Waxing Crescent
Nov 20
First Quarter
Nov 28
Full
Dec 6
Last Quarter
Dec 13
New

Hourly Weather History & Observations

Time (EET) Temp. Heat Index Dew Point Humidity Pressure Visibility Wind Dir Wind Speed Gust Speed Precip Events Conditions
12:00 AM 68.0 °F - 42.8 °F 40% 29.89 in 1.9 mi SW 4.6 mph - N/A   Haze
12:30 AM 66.2 °F - 42.8 °F 43% 29.89 in 1.9 mi South 3.5 mph - N/A   Haze
1:00 AM 66.2 °F - 41.0 °F 40% 29.89 in 1.9 mi SSE 9.2 mph - N/A   Haze
1:30 AM 66.2 °F - 41.0 °F 40% 29.89 in 1.9 mi SSE 9.2 mph - N/A   Haze
2:00 AM 67 °F - 41 °F 27% 29.90 in 2 mi SSE 6.9 mph - -   Haze
2:00 AM 66.2 °F - 41.0 °F 40% 29.89 in 1.9 mi SSE 6.9 mph - N/A   Haze
2:30 AM 69.8 °F - 41.0 °F 35% 29.89 in 1.9 mi SE 5.8 mph - N/A   Haze
3:00 AM 68.0 °F - 41.0 °F 37% 29.89 in 1.9 mi SE 4.6 mph - N/A   Haze
3:30 AM 66.2 °F - 41.0 °F 40% 29.89 in 1.9 mi SSE 5.8 mph - N/A   Haze
4:00 AM 68.0 °F - 41.0 °F 37% 29.86 in 1.9 mi SE 4.6 mph - N/A   Haze
4:30 AM 66.2 °F - 42.8 °F 43% 29.86 in 1.9 mi SE 3.5 mph - N/A   Haze
5:00 AM 66.2 °F - 41.0 °F 40% 29.89 in 1.9 mi SE 2.3 mph - N/A   Haze
5:30 AM 66.2 °F - 42.8 °F 43% 29.89 in 2.5 mi Calm Calm - N/A   Haze
6:00 AM 64.4 °F - 42.8 °F 45% 29.89 in 3.7 mi SSE 4.6 mph - N/A   Unknown
6:30 AM 66.2 °F - 41.0 °F 40% 29.89 in 3.7 mi SSE 6.9 mph - N/A   Unknown
7:00 AM 66.2 °F - 41.0 °F 40% 29.92 in 2.5 mi SSE 8.1 mph - N/A   Haze
7:30 AM 68.0 °F - 41.0 °F 37% 29.92 in 2.5 mi SSE 8.1 mph - N/A   Haze
8:00 AM 69 °F - 41 °F 25% 29.94 in 2 mi South 5.8 mph - -   Haze
8:00 AM 69.8 °F - 41.0 °F 35% 29.92 in 1.9 mi South 5.8 mph - N/A   Haze
8:30 AM 73.4 °F - 41.0 °F 31% 29.95 in 1.9 mi South 5.8 mph - N/A   Haze
9:00 AM 75.2 °F - 39.2 °F 27% 29.95 in 2.5 mi South 12.7 mph - N/A   Haze
9:30 AM 75.2 °F - 39.2 °F 27% 29.95 in 2.5 mi South 12.7 mph - N/A   Haze
10:00 AM 75.2 °F - 39.2 °F 27% 29.95 in 2.5 mi South 11.5 mph - N/A   Haze
10:30 AM 77.0 °F - 39.2 °F 26% 29.92 in 3.7 mi SSW 8.1 mph - N/A   Unknown
11:00 AM 78.8 °F - 44.6 °F 30% 29.95 in 3.7 mi SSW 6.9 mph - N/A   Unknown
11:30 AM 78.8 °F - 44.6 °F 30% 29.95 in 3.7 mi SSW 6.9 mph - N/A   Unknown
12:00 PM 78.8 °F - 39.2 °F 24% 29.92 in 3.7 mi WSW 6.9 mph - N/A   Unknown
12:30 PM 77.0 °F - 41.0 °F 28% 29.92 in 3.7 mi WSW 11.5 mph - N/A   Unknown
1:00 PM 77.0 °F - 39.2 °F 26% 29.89 in 3.7 mi WSW 6.9 mph - N/A   Unknown
1:30 PM 78.8 °F - 39.2 °F 24% 29.89 in 3.7 mi WSW 6.9 mph - N/A   Unknown
2:00 PM 81 °F - 47 °F 21% 29.89 in 4 mi WSW 5.8 mph - -   Haze
2:00 PM 80.6 °F - 48.2 °F 32% 29.89 in 3.7 mi WSW 5.8 mph - N/A   Unknown
2:30 PM 80.6 °F 80.3 °F 53.6 °F 39% 29.89 in 3.7 mi WNW 4.6 mph - N/A   Unknown
3:00 PM 78.8 °F - 39.2 °F 24% 29.89 in 3.7 mi WNW 4.6 mph - N/A   Unknown
3:30 PM 78.8 °F - 39.2 °F 24% 29.89 in 3.7 mi NW 6.9 mph - N/A   Unknown
4:00 PM 78.8 °F - 39.2 °F 24% 29.89 in 3.7 mi WNW 4.6 mph - N/A   Unknown
4:30 PM 77.0 °F - 39.2 °F 26% 29.89 in 3.7 mi NW 4.6 mph - N/A   Unknown
5:00 PM 77.0 °F - 41.0 °F 28% 29.89 in 3.7 mi NW 4.6 mph - N/A   Unknown
5:30 PM 77.0 °F - 41.0 °F 28% 29.92 in 3.7 mi NNW 4.6 mph - N/A   Unknown
6:00 PM 75.2 °F - 41.0 °F 29% 29.92 in 3.7 mi NNW 4.6 mph - N/A   Unknown
6:30 PM 75.2 °F - 42.8 °F 31% 29.92 in 3.7 mi NNW 3.5 mph - N/A   Unknown
7:00 PM 75.2 °F - 44.6 °F 34% 29.95 in 3.7 mi North 5.8 mph - N/A   Unknown
7:30 PM 71.6 °F - 46.4 °F 41% 29.95 in 3.7 mi NNE 3.5 mph - N/A   Unknown
8:00 PM 71 °F - 49 °F 34% 29.96 in 4 mi ENE 5.8 mph - -   Haze
8:00 PM 69.8 °F - 48.2 °F 46% 29.95 in 3.7 mi ENE 5.8 mph - N/A   Unknown
8:30 PM 69.8 °F - 48.2 °F 46% 29.98 in 3.7 mi ENE 5.8 mph - N/A   Unknown
9:00 PM 68.0 °F - 50.0 °F 52% 29.98 in 3.7 mi ENE 5.8 mph - N/A   Unknown
9:30 PM 68.0 °F - 50.0 °F 52% 29.98 in 3.7 mi ENE 5.8 mph - N/A   Unknown
10:00 PM 68.0 °F - 51.8 °F 56% 29.98 in 3.7 mi NE 4.6 mph - N/A   Unknown
10:30 PM 68.0 °F - 51.8 °F 56% 29.98 in 3.7 mi NE 4.6 mph - N/A   Unknown
11:00 PM 66.2 °F - 51.8 °F 60% 29.98 in 3.7 mi NE 3.5 mph - N/A   Unknown
11:30 PM 66.2 °F - 53.6 °F 64% 29.98 in 3.7 mi NE 3.5 mph - N/A   Unknown